Погода в Чердыни

Погода в Чердыни : погода сейчас, прогноз погоды и архив. Всё, что Вы хотите узнать о погоде в Чердыни!

Хотите узнать прогноз погоды в Чердыни? Тогда Вам сюда: Погода в Чердыни

Поиск расширенной информации на нашем сайте:

Другие новости

Новости СМИ2

Главная страница сайта

Новости сайта

03.07.2017

Напоминаем, что на нашем специализированном сайте Метеоцентр.Азия вы можете получить высокодетализированные автоматические прогнозы погоды по пунктам России, СНГ и мира в авиационном формате (включающие направление и скорость ветра, видимость, явления погоды, количество и форму облачности, нижнюю и верхнюю границу облачности).


Погода в Чердыни - сегодня

Время (UTC), дата Ветер
(°,м/с) 
Видим.   Явления Облачность Т
(°С)
Тd
(°С)
f(%) Тe
(°С)
Pmin
(гПа)
dP
(гПа)
Po
(мм)
O2
(г/м3)
Тmin Tmax R s Состояние
почвы
21 13.08.18 230 (ЮЗ) 20000 м    3/3 300 м 
[Sc diur, vesp]
+15.2 +12.3 83 +20  1003  0.9  734  278           
00 14.08.18 220 (ЮЗ) 20000 м    9/9 300 м 
[Sc]
+13.2 +11.2 88 +16  1003.8  0.6  735  280           
03 14.08.18 220 (ЮЗ) 20000 м    9/1 2000 м средняя, верхняя 
[Ac lent|Cs]
+13.1 +10.7 85 +15  1005.1  1.2  736  281  +12.8      влажная 
06 14.08.18 210 (ЮЗ) 20000 м    6/3 300 м верхняя 
[Sc diur, vesp|Cs]
+17.4 +9.8 61 +18  1005.3  0.5  736  277           
09 14.08.18 250 (З) 20000 м    9/8 300 м кучево-дожд., верхняя 
[Cb cap|Cs]
+18.7 +10.2 58 +22  1005.6  0.4  736  276           
12 14.08.18 230 (ЮЗ) 20000 м    9/8 300 м кучево-дожд., верхняя 
[Cb cap|Cs]
+18.7 +10.5 59 +21  1006.2  0.6  737  276           
18 14.08.18 280 (З) 20000 м    8/4 300 м средняя, верхняя 
[Sc|Ac As|Ci fib]
+14.4 +10.3 76 +17  1008.3  1.2  738  281           
21 14.08.18 270 (З) 20000 м    3/3 2000 м средняя 
[Ac As]
+11.9 +9 82 +12  1009.1  0.6  738  284           
00 15.08.18 260 (З) 20000 м    3/1 2000 м средняя, верхняя 
[Ac As|Ci fib]
+10.3 +8.6 89 +10  1010.4  1.1  739  286           
03 15.08.18 260 (З) 20000 м    3/1 2000 м средняя, верхняя 
[Ac trans|Ci fib]
+12.6 +10 84 +14  1011.1  1.1  740  283  +9.8        сухая 
06 15.08.18 270 (З) 20000 м    4/3 1000 м средняя, верхняя 
[Cu med, cong|Ac trans|Ci]
+17.5 +9.4 59 +19  1011  0.2  740  279           
09 15.08.18 280 (З) 20000 м    8/8 300 м 
[Cu Sc]
+20.6 +8.9 47 +21  1010.8  0.1  740  276           
12 15.08.18 250 (З) 20000 м  слаб. ливневой дождь  9/9 300 м кучево-дожд. 
[Cb cap]
+15.9 +11.4 75 +19  1011.8  0.7  741  280           
18 15.08.18 250 (З) 20000 м  {ливн. осадки}  8/4 300 м средняя, верхняя 
[Sc diur, vesp|Ac lent|Ci ing]
+13.4 +9.9 79 +15  1013.1  0.6  741  283           
21 15.08.18 240 (ЮЗ) 20000 м    3/0 верхняя 
[Ci fib]
+11.5 +9.6 88 +13  1013.3  741  285           
00 16.08.18 200 (Ю) 20000 м    9/8 300 м верхняя 
[Sc|Ci]
+10.9 +9.7 92 +12  1013.1  -0.2  741  285           
03 16.08.18 120 (ЮВ) 4000 м  дымка  10/1 300 м средняя 
[Sc|Ac As]
+10.9 +10.1 95 +13  1012.6  -0.5  741  285  +10.4        влажная 
06 16.08.18 130 (ЮВ) 10 км  слаб. дождь  10/10 300 м 
[Ns]
+12.5 +11.5 94 +17  1011.8  -0.6  740  283           
09 16.08.18 040 (СВ) 10 км  слаб. дождь  10/10 300 м 
[Frnb|Ns]
+13.3 +12.2 93 +19  1010.7  -1  740  282           
12 16.08.18 020 (С) 20000 м  слаб. ливневой дождь  10/10 300 м кучево-дожд. 
[Cb cap]
+13.1 +12.3 95 +18  1010.5  -0.3  740  282           
18 16.08.18 320 (СЗ) 20000 м  {ливн. осадки}  10/6 300 м кучево-дожд., средняя 
[Cb cap|Ac und]
+12.2 +11.4 95 +16  1011.5  0.7  740  283           
21 16.08.18 320 (СЗ) 20000 м    10/10 300 м 
[Sc diur, vesp]
+10.6 +8.3 86 +11  1012.2  0.5  741  286           
00 17.08.18 310 (СЗ) 20000 м    9/9 300 м 
[Sc]
+9.3 +7.3 87 +9  1013.7  1.3  742  288           
03 17.08.18 300 (СЗ) 20000 м    9/4 300 м средняя, верхняя 
[Sc|Ac trans|Cs]
+8.7 +6.7 87 +9  1015.7  1.9  743  289  +8.5        влажная 
12 17.08.18 280 (З) 20000 м  в посл. час ливневой дождь  9/6 300 м кучево-дожд., средняя, верхняя 
[Cb cap|Ac cast|Ci]
+12.4 +8.4 77 +12  1017  0.5  744  285           
Время (UTC), дата Ветер
(°,м/с) 
Видим.   Явления Облачность Т
(°С)
Тd
(°С)
f(%) Тe
(°С)
Pmin
(гПа)
dP
(гПа)
Po
(мм)
O2
(г/м3)
Тmin Tmax R s Состояние
почвы

Для получения пояснительной информации подведите курсор к названию столбца.

ПОГОДА в Чердыни - архив

Всё, что Вы хотите узнать о погоде в Чердыни - удобно и подробно!

Выберите нужную дату (начиная с 1 января 2015* года) и нажмите кнопку "Найти".
Будут отображены архивные сводки погоды по пункту Чердынь, начиная с указанной даты.


Отображать данные в формате CSV (для использования в таблицах Excel)


Внимание! Наш архив погоды предназначен исключительно для личного некоммерческого использования в познавательных целях. Если Вам необходимы официальные справки о состоянии погоды (для производственных, юридических, коммерческих и т.п. целей), обращайтесь в органы Росгидромета.

*Примечание: данная дата относится к архиву по метеостанциям СССР (Россия, СНГ, Балтия).
Архив по метеостанциям Зарубежной Европы и Азии (кроме Китая) хранится 10 дней, по другим регионам земного шара (Китай, Африка, Америка, Австралия, Океания) - 1 день.

Чердынь - район местоположения метеостанции


Название, широта, долгота, высота метеостанции:
Чердынь 60.4°ш. 56.5°д. 207 м над ур. моря [Российская Федерация]

Дополнительная информация

В oтличие oт бoльшинства пoгoдных сайтoв мы публикуем пoдрoбную метеoинфoрмацию в детальнoм прoфессиoнальнoм фoрмате.

Характеристики температуры и влажнoсти вoздуха измеряются на высoте 2 м в тени вдали oт зданий и деревьев.
Скoрoсть ветра измеряется на высoте 10 м (на урoвне рoста челoвека скoрoсть ветра ниже в 1.5-2 раза). Если метеoстанция нахoдится в гoрoде или в лесу, тo скoрoсть ветра занижена на 2-4 м/с пo сравнению с oткрытым местoм. Скoрoсть ветра над акватoриями крупных рек и oзёр, а также на вершинах хoлмoв на 2-5 м/с выше, чем в oбычных услoвиях.
Атмoсфернoе давление в разных тoчках местнoсти мoжет значительнo oтличаться oт давления на метеoстанции, в зависимoсти oт услoвий рельефа (при пoдъёме на 10 м давление пoнижается примернo на 1 мм рт.ст.).